Powrót do katalogu

EUTELSAT QUANTUM

AktywnyŁącznośćGEO
NORAD 49056·PAYLOAD·🇪🇺 EU

Wystrzelony Jul 30, 2021 z Guiana Space Centre

Loading…

TLE

ŚwieżeSource: Space-Track

Epoka: Sep 14, 2026, 14:01 UTC

1 49056U 21069B   26257.58454772  .00000118  00000-0  00000-0 0  9996
2 49056   0.0249  70.5462 0002274 101.1595  79.9992  1.00273271 18829

Śledź EUTELSAT QUANTUM w czasie rzeczywistym z AllMySat

Download on the App Store